This is the latest recevied weather packets stored in our database for station/object WE0DX-1. If no packets are shown the sender has not sent any weather packets the latest 10 day(s).
| Time | Temp. | Humidity | Pressure | Rain* | Wind** | Luminosity | Snow |
|---|---|---|---|---|---|---|---|
| 1777544390 | 6.67° C | 94% | 1018.3 hPa | 0 mm | - | 0 W/m² | - |
| 1777544087 | 6.67° C | 94% | 1018.1 hPa | 0 mm | - | 0 W/m² | - |
| 1777543785 | 6.67° C | 94% | 1018.3 hPa | 0 mm | - | 0 W/m² | - |
| 1777543481 | 6.67° C | 93% | 1018.4 hPa | 0 mm | - | 0 W/m² | - |
| 1777543177 | 6.67° C | 92% | 1018.3 hPa | 0 mm | - | 0 W/m² | - |
| 1777542873 | 6.67° C | 91% | 1018.3 hPa | 0 mm | - | 0 W/m² | - |
| 1777542570 | 7.22° C | 89% | 1018.4 hPa | 0 mm | - | 0 W/m² | - |
| 1777542266 | 7.22° C | 88% | 1018.1 hPa | 0 mm | - | 0 W/m² | - |
| 1777541964 | 6.67° C | 90% | 1018 hPa | 0 mm | - | 0 W/m² | - |
| 1777541660 | 6.11° C | 92% | 1018 hPa | 0 mm | - | 0 W/m² | - |
| 1777541352 | 6.11° C | 93% | 1017.8 hPa | 0 mm | - | 0 W/m² | - |
| 1777541047 | 5.56° C | 93% | 1017.9 hPa | 0 mm | - | 0 W/m² | - |
| 1777540744 | 6.11° C | 93% | 1018 hPa | 0 mm | - | 0 W/m² | - |
| 1777540443 | 6.67° C | 92% | 1017.9 hPa | 0 mm | - | 0 W/m² | - |
| 1777540138 | 6.67° C | 91% | 1017.8 hPa | 0 mm | - | 0 W/m² | - |
| 1777539834 | 6.67° C | 90% | 1017.8 hPa | 0 mm | - | 0 W/m² | - |
| 1777539530 | 6.67° C | 90% | 1017.6 hPa | 0 mm | - | 0 W/m² | - |
| 1777539227 | 6.67° C | 90% | 1017.5 hPa | 0 mm | - | 0 W/m² | - |
| 1777537403 | 6.67° C | 91% | 1017.3 hPa | 0 mm | - | 0 W/m² | - |
| 1777537098 | 6.67° C | 89% | 1017.4 hPa | 0 mm | - | 0 W/m² | - |
| 1777536487 | 6.67° C | 89% | 1017.6 hPa | 0 mm | - | 0 W/m² | - |
| 1777536183 | 6.67° C | 88% | 1017.4 hPa | 0 mm | - | 0 W/m² | - |
| 1777534665 | 7.22° C | 89% | 1017.6 hPa | 0 mm | - | 0 W/m² | - |
| 1777534363 | 7.22° C | 89% | 1017.5 hPa | 0 mm | - | 0 W/m² | - |
| 1777534061 | 7.22° C | 88% | 1017.8 hPa | 0 mm | - | 0 W/m² | - |
* Rain latest hour (hover to see other rain measurements)
** Current wind speed in m/s (hover to see current wind gust speed)